Home > Time Zones > World Clock > Weather > India > Pali > Past weeks

Flag for India Weather past 2 weeks in Pali, Rajasthan, India

Now
81 °F

Passing clouds.


Feels Like: 80 °F
Forecast: 83 / 105 °F
Wind: 6 mph from South

Location: Jaipur / Sanganer


UV Index: 7 (High)

Visibility: 2 mi


Pressure: 29.80 "Hg

Humidity: 39%

Dew point: 54 °F

Location of PaliLocation

Historic Weather in Pali

°F

Pali temperature yesterday

Maximum temperature yesterday: 91 °F (at 3:00 PM)
Minimum temperature yesterday: 81 °F (at 2:00 AM)
Average temperature yesterday: 84 °F

Past Weeks' High & Low Weather Summary

 TemperatureHumidityPressure
High100 °F (Apr 13, 2:00 PM)69% (Apr 8, 5:00 AM)29.98 "Hg (Apr 8, 5:00 AM)
Low70 °F (Apr 4, 5:00 AM)6% (Apr 12, 2:00 PM)29.71 "Hg (Apr 2, 3:00 PM)
Average86 °F25%29.86 "Hg
* Reported Apr 1 11:00 PM — Apr 16 11:00 PM, Pali, Weather by CustomWeather, © 2014

Note: Actual official high and low records may vary slightly from our data, if they occured in-between our weather recording intervals... More about our weather records

Advertising

Historic Weather Conditions — Data for Previous 24 hours

 ConditionsComfort  
Time TempWeatherWind HumidityBarometerVisibility
11:00 PM
Apr 16
81 °FPassing clouds.2 mph39%29.80 "Hg1 mi
10:00 PM82 °FPassing clouds.5 mph40%29.80 "Hg1 mi
9:00 PM84 °FThunderstorms. Passing clouds.5 mph33%29.80 "Hg1 mi
8:00 PM86 °FThunderstorms. Passing clouds.2 mph31%29.83 "Hg1 mi
4:00 PM91 °FScattered clouds.7 mph23%29.77 "Hg2 mi
3:00 PM91 °FPartly sunny.7 mph23%29.80 "Hg1 mi
2:00 PM90 °FPartly sunny.8 mph29%29.83 "Hg1 mi
1:00 PM90 °FPartly sunny.13 mph27%29.89 "Hg1 mi
12:00 PM86 °FPartly sunny.10 mph33%29.89 "Hg1 mi
9:00 AM81 °FScattered clouds.21 mph32%29.95 "Hg1 mi
8:00 AM84 °FScattered clouds.3 mph31%29.86 "Hg2 mi
7:00 AM81 °FScattered clouds.5 mph32%29.83 "Hg2 mi
6:00 AM81 °FPassing clouds.5 mph32%29.83 "Hg2 mi
4:00 AM81 °FHaze.3 mph30%29.83 "Hg2 mi
3:00 AM81 °FHaze.No wind28%29.83 "Hg2 mi
2:00 AM81 °FHaze.No wind32%29.86 "Hg2 mi
1:00 AM84 °FHaze.2 mph25%29.86 "Hg2 mi
12:00 AM84 °FHaze.2 mph22%29.86 "Hg2 mi
Weather by CustomWeather, © 2014

See weather overview